Location: Katowice
(50.2611°N, 19.0242°E)
Time: 03:11:26
(UTC+02:00)

A-11 Canister half - Pass Details

Date: 25 July 2019
Orbit: 1526 x 1683 km, 47.3° (Epoch: 23 August)

Event Time Altitude Azimuth Distance (km) Brightness Sun altitude
Rises 22:45:19 0° 262° (W) 4,911 12.0 -14.9°
Reaches altitude 10° 22:48:30 10° 261° (W) 3,910 11.4 -15.2°
Maximum altitude 22:58:28 76° 179° (S) 1,668 9.0 -15.9°
Drops below altitude 10° 23:08:07 10° 95° (E) 3,790 10.8 -16.6°
Sets 23:11:09 0° 94° (E) 4,754 11.3 -16.8°
